START_TIME,STEP,MOV.,H8,t_acc.,H43,t_acc.,M25,t_acc.,H9,t_acc.
1979-03-10 18:00:27.030 ,7,0,0.,12.0,0.,12.0,0.,12.0,0.,12.0
1979-03-10 18:00:39.030 ,7,0,0.,12.0,0.,12.0,0.,12.0,0.,12.0
1979-03-10 18:00:51.030 ,6,0,0.,12.0,0.,12.0,0.,12.0,0.,12.0
1979-03-10 18:01:03.030 ,6,0,0.,12.0,0.,12.0,0.,12.0,0.,12.0
1979-03-10 18:01:15.030 ,5,0,0.,12.0,0.,12.0,0.,12.0,0.,12.0
1979-03-10 18:01:27.030 ,5,0,0.,12.0,0.,12.0,0.,12.0,0.,12.0
1979-03-10 18:01:39.030 ,4,0,0.,12.0,0.,12.0,0.,12.0,0.,12.0
1979-03-10 18:01:51.030 ,4,0,0.,12.0,0.,12.0,0.,12.0,0.,12.0
1979-03-10 18:02:03.030 ,3,0,0.,12.0,0.,12.0,0.,12.0,0.,12.0
1979-03-10 18:02:15.030 ,3,0,0.,12.0,0.,12.0,0.,12.0,0.,12.0
1979-03-10 18:02:27.030 ,2,0,0.,12.0,0.,12.0,0.,12.0,0.,12.0
1979-03-10 18:02:39.030 ,2,0,0.,12.0,0.,12.0,0.,12.0,0.,12.0
1979-03-10 18:02:51.030 ,1,0,0.,12.0,0.,12.0,0.,12.0,0.,12.0
1979-03-10 18:03:03.030 ,1,0,0.,12.0,0.,12.0,0.,12.0,0.,12.0
1979-03-10 18:03:15.030 ,0,0,0.,12.0,0.,12.0,0.,12.0,0.,12.0
1979-03-10 18:03:27.030 ,0,0,0.,12.0,0.,12.0,0.,12.0,0.,12.0
1979-03-10 18:03:39.030 ,0,0,0.,12.0,0.,12.0,0.,12.0,0.,12.0
1979-03-10 18:03:51.030 ,0,0,0.,12.0,0.,12.0,0.,12.0,0.,12.0
1979-03-10 18:04:03.030 ,1,0,0.,12.0,0.,12.0,0.,12.0,0.,12.0
1979-03-10 18:04:15.030 ,1,0,0.,12.0,0.,12.0,0.,12.0,0.,12.0
1979-03-10 18:04:27.030 ,2,0,0.,12.0,0.,12.0,0.,12.0,0.,12.0
1979-03-10 18:04:39.030 ,2,0,0.,12.0,0.,12.0,0.,12.0,0.,12.0
1979-03-10 18:04:51.030 ,3,0,0.,12.0,0.,12.0,0.,12.0,0.,12.0
1979-03-10 18:05:03.030 ,3,0,0.,12.0,0.,12.0,0.,12.0,0.,12.0
1979-03-10 18:05:15.030 ,4,0,0.,12.0,0.,12.0,0.,12.0,0.,12.0
1979-03-10 18:05:27.030 ,4,0,0.,12.0,0.,12.0,0.,12.0,0.,12.0
1979-03-10 18:05:39.030 ,5,0,0.,12.0,0.,12.0,0.,12.0,0.,12.0
1979-03-10 18:05:51.030 ,5,0,0.,12.0,0.,12.0,0.,12.0,0.,12.0
1979-03-10 18:06:03.030 ,6,0,0.,12.0,0.,12.0,0.,12.0,0.,12.0
1979-03-10 18:06:15.030 ,6,0,0.,12.0,0.,12.0,0.,12.0,0.,12.0
1979-03-10 18:06:27.030 ,7,0,0.,12.0,0.,12.0,0.,12.0,0.,12.0
1979-03-10 18:06:39.030 ,7,0,0.,12.0,0.,12.0,0.,12.0,0.,12.0
1979-03-10 18:06:51.030 ,7,0,0.,12.0,0.,12.0,0.,12.0,0.,12.0
1979-03-10 18:07:03.030 ,7,0,0.,12.0,0.,12.0,0.,12.0,0.,12.0
1979-03-10 18:07:15.030 ,6,0,0.,12.0,0.,12.0,0.,12.0,0.,12.0
1979-03-10 18:07:27.030 ,6,0,0.,12.0,0.,12.0,0.,12.0,0.,12.0
1979-03-10 18:07:39.030 ,5,0,0.,12.0,0.,12.0,0.,12.0,0.,12.0
1979-03-10 18:07:51.030 ,5,0,0.,12.0,0.,12.0,0.,12.0,0.,12.0
1979-03-10 18:08:03.030 ,4,0,0.,12.0,0.,12.0,0.,12.0,0.,12.0
1979-03-10 18:08:15.030 ,4,0,0.,12.0,0.,12.0,0.,12.0,0.,12.0
1979-03-10 18:08:27.030 ,3,0,0.,12.0,0.,12.0,0.,12.0,0.,12.0
1979-03-10 18:08:39.030 ,3,0,0.,12.0,0.,12.0,0.,12.0,0.,12.0
1979-03-10 18:08:51.030 ,2,0,0.,12.0,0.,12.0,0.,12.0,0.,12.0
1979-03-10 18:09:03.030 ,2,0,0.,12.0,0.,12.0,0.,12.0,0.,12.0
1979-03-10 18:09:15.030 ,1,0,0.,12.0,0.,12.0,0.,12.0,0.,12.0
1979-03-10 18:09:27.030 ,1,0,0.,12.0,0.,12.0,0.,12.0,0.,12.0
1979-03-10 18:09:39.030 ,0,0,0.,12.0,0.,12.0,0.,12.0,0.,12.0
1979-03-10 18:09:51.030 ,0,0,0.,12.0,0.,12.0,0.,12.0,0.,12.0
1979-03-10 18:10:03.030 ,0,0,0.,12.0,0.,12.0,0.,12.0,0.,12.0
1979-03-10 18:10:15.030 ,0,0,0.,12.0,0.,12.0,0.,12.0,0.,12.0
1979-03-10 18:10:27.030 ,1,0,0.,12.0,0.,12.0,0.,12.0,0.,12.0
1979-03-10 18:10:39.030 ,1,0,0.,12.0,0.,12.0,0.,12.0,0.,12.0
1979-03-10 18:10:51.030 ,2,0,0.,12.0,0.,12.0,0.,12.0,0.,12.0
1979-03-10 18:11:03.030 ,2,0,0.,12.0,0.,12.0,0.,12.0,0.,12.0
1979-03-10 18:11:15.030 ,3,0,0.,12.0,0.,12.0,0.,12.0,0.,12.0
1979-03-10 18:11:27.030 ,3,0,0.,12.0,0.,12.0,0.,12.0,0.,12.0
1979-03-10 18:11:39.030 ,4,0,0.,12.0,0.,12.0,0.,12.0,0.,12.0
1979-03-10 18:11:51.030 ,4,0,0.,12.0,0.,12.0,0.,12.0,0.,12.0
1979-03-10 18:12:03.030 ,5,0,0.,12.0,0.,12.0,0.,12.0,0.,12.0
1979-03-10 18:12:15.030 ,5,0,0.,12.0,0.,12.0,0.,12.0,0.,12.0
1979-03-10 18:12:27.030 ,6,0,0.,12.0,0.,12.0,0.,12.0,0.,12.0
1979-03-10 18:12:39.030 ,6,0,0.,12.0,0.,12.0,0.,12.0,0.,12.0
1979-03-10 18:12:51.030 ,7,0,0.,12.0,0.,12.0,0.,12.0,0.,12.0
1979-03-10 18:13:03.030 ,7,0,0.,12.0,0.,12.0,0.,12.0,0.,12.0
1979-03-10 18:13:15.030 ,7,0,0.,12.0,0.,12.0,0.,12.0,0.,12.0
1979-03-10 18:13:27.030 ,7,0,0.,12.0,0.,12.0,0.,12.0,0.,12.0
1979-03-10 18:13:39.030 ,6,0,0.,12.0,0.,12.0,0.,12.0,0.,12.0
1979-03-10 18:13:51.030 ,6,0,0.,12.0,0.,12.0,0.,12.0,0.,12.0
1979-03-10 18:14:03.030 ,5,0,0.,12.0,0.,12.0,0.,12.0,0.,12.0
1979-03-10 18:14:15.030 ,5,0,0.,12.0,0.,12.0,0.,12.0,0.,12.0
1979-03-10 18:14:27.030 ,4,0,0.,12.0,0.,12.0,0.,12.0,0.,12.0
1979-03-10 18:14:39.030 ,4,0,0.,12.0,0.,12.0,0.,12.0,0.,12.0
1979-03-10 18:14:51.030 ,3,0,0.,12.0,0.,12.0,0.,12.0,0.,12.0
1979-03-10 18:15:03.030 ,3,0,0.,12.0,0.,12.0,0.,12.0,0.,12.0
1979-03-10 18:15:15.030 ,2,0,0.,12.0,0.,12.0,0.,12.0,0.,12.0
1979-03-10 18:15:27.030 ,2,0,0.,12.0,0.,12.0,0.,12.0,0.,12.0
1979-03-10 18:15:39.030 ,1,0,0.,12.0,0.,12.0,0.,12.0,0.,12.0
1979-03-10 18:15:51.030 ,1,0,0.,12.0,0.,12.0,0.,12.0,0.,12.0
1979-03-10 18:16:03.030 ,0,0,0.,12.0,0.,12.0,0.,12.0,0.,12.0
1979-03-10 18:16:15.030 ,0,0,0.,12.0,0.,12.0,0.,12.0,0.,12.0
1979-03-10 18:16:27.030 ,0,0,0.,12.0,0.,12.0,0.,12.0,0.,12.0
1979-03-10 18:16:39.030 ,0,0,0.,12.0,0.,12.0,0.,12.0,0.,12.0
1979-03-10 18:16:51.030 ,1,0,0.,12.0,0.,12.0,0.,12.0,0.,12.0
1979-03-10 18:17:03.030 ,1,0,0.,12.0,0.,12.0,0.,12.0,0.,12.0
1979-03-10 18:17:15.030 ,2,0,0.,12.0,0.,12.0,0.,12.0,0.,12.0
1979-03-10 18:17:27.030 ,2,0,0.,12.0,0.,12.0,0.,12.0,0.,12.0
1979-03-10 18:17:39.030 ,3,0,0.,12.0,0.,12.0,0.,12.0,0.,12.0
1979-03-10 18:17:51.030 ,3,0,0.,12.0,0.,12.0,0.,12.0,0.,12.0
1979-03-10 18:18:03.030 ,4,0,0.,12.0,0.,12.0,0.,12.0,0.,12.0
1979-03-10 18:18:15.030 ,4,0,0.,12.0,0.,12.0,0.,12.0,0.,12.0
1979-03-10 18:18:27.030 ,5,0,0.,12.0,0.,12.0,0.,12.0,0.,12.0
1979-03-10 18:18:39.030 ,5,0,0.,12.0,0.,12.0,0.,12.0,0.,12.0
1979-03-10 18:18:51.030 ,6,0,0.,12.0,0.,12.0,0.,12.0,0.,12.0
1979-03-10 18:19:03.030 ,6,0,0.,12.0,0.,12.0,0.,12.0,0.,12.0
1979-03-10 18:19:15.030 ,7,0,0.,12.0,0.,12.0,0.,12.0,0.,12.0
1979-03-10 18:19:27.030 ,7,0,0.,12.0,0.,12.0,0.,12.0,0.,12.0
1979-03-10 18:19:39.030 ,7,0,0.,12.0,0.,12.0,0.,12.0,0.,12.0
1979-03-10 18:19:51.030 ,7,0,0.,12.0,0.,12.0,0.,12.0,0.,12.0
1979-03-10 18:20:03.030 ,6,0,0.,12.0,0.,12.0,0.,12.0,0.,12.0
1979-03-10 18:20:15.030 ,6,0,0.,12.0,0.,12.0,0.,12.0,0.,12.0
1979-03-10 18:20:27.030 ,5,0,0.,12.0,0.,12.0,0.,12.0,0.,12.0
1979-03-10 18:20:39.030 ,5,0,0.,12.0,0.,12.0,0.,12.0,0.,12.0
1979-03-10 18:20:51.030 ,4,0,0.,12.0,0.,12.0,0.,12.0,0.,12.0
1979-03-10 18:21:03.030 ,4,0,0.,12.0,0.,12.0,0.,12.0,0.,12.0
1979-03-10 18:21:15.030 ,3,0,0.,12.0,0.,12.0,0.,12.0,0.,12.0
1979-03-10 18:21:27.030 ,3,0,0.,12.0,0.,12.0,0.,12.0,0.,12.0
1979-03-10 18:21:39.030 ,2,0,0.,12.0,0.,12.0,0.,12.0,0.,12.0
1979-03-10 18:21:51.030 ,2,0,0.,12.0,0.,12.0,0.,12.0,0.,12.0
1979-03-10 18:22:03.030 ,1,0,0.,12.0,0.,12.0,0.,12.0,0.,12.0
1979-03-10 18:22:15.030 ,1,0,0.,12.0,0.,12.0,0.,12.0,0.,12.0
1979-03-10 18:22:27.030 ,0,0,0.,12.0,0.,12.0,0.,12.0,0.,12.0
1979-03-10 18:22:39.030 ,0,0,0.,12.0,0.,12.0,0.,12.0,0.,12.0
1979-03-10 18:22:51.030 ,0,0,0.,12.0,0.,12.0,0.,12.0,0.,12.0
1979-03-10 18:23:03.030 ,0,0,0.,12.0,0.,12.0,0.,12.0,0.,12.0
1979-03-10 18:23:15.030 ,1,0,0.,12.0,0.,12.0,0.,12.0,0.,12.0
1979-03-10 18:23:27.030 ,1,0,0.,12.0,0.,12.0,0.,12.0,0.,12.0
1979-03-10 18:23:39.030 ,2,0,0.,12.0,0.,12.0,0.,12.0,0.,12.0
1979-03-10 18:23:51.030 ,2,0,0.,12.0,0.,12.0,0.,12.0,0.,12.0
1979-03-10 18:24:03.030 ,3,0,0.,12.0,0.,12.0,0.,12.0,0.,12.0
1979-03-10 18:24:15.030 ,3,0,0.,12.0,0.,12.0,0.,12.0,0.,12.0
1979-03-10 18:24:27.030 ,4,0,0.,12.0,0.,12.0,0.,12.0,0.,12.0
1979-03-10 18:24:39.030 ,4,0,0.,12.0,0.,12.0,0.,12.0,0.,12.0
1979-03-10 18:24:51.030 ,5,0,0.,12.0,0.,12.0,0.,12.0,0.,12.0
1979-03-10 18:25:03.030 ,5,0,0.,12.0,0.,12.0,0.,12.0,0.,12.0
1979-03-10 18:25:15.030 ,6,0,0.,12.0,0.,12.0,0.,12.0,0.,12.0
1979-03-10 18:25:27.030 ,6,0,0.,12.0,0.,12.0,0.,12.0,0.,12.0
1979-03-10 18:25:39.030 ,7,0,0.,12.0,0.,12.0,0.,12.0,0.,12.0
1979-03-10 18:25:51.030 ,7,0,0.,12.0,0.,12.0,0.,12.0,0.,12.0
1979-03-10 18:26:03.030 ,7,0,0.,12.0,0.,12.0,0.,12.0,0.,12.0
1979-03-10 18:26:15.030 ,7,0,0.,12.0,0.,12.0,0.,12.0,0.,12.0
1979-03-10 18:26:27.030 ,6,0,0.,12.0,0.,12.0,0.,12.0,0.,12.0
1979-03-10 18:26:39.030 ,6,0,0.,12.0,0.,12.0,0.,12.0,0.,12.0
1979-03-10 18:26:51.030 ,5,0,,0,,0,,0,,0
1979-03-10 18:27:03.030 ,5,0,0.,12.0,0.,12.0,0.,12.0,0.,12.0
1979-03-10 18:27:15.030 ,4,0,0.,12.0,0.,12.0,0.,12.0,0.,12.0
1979-03-10 18:27:27.030 ,4,0,0.,12.0,0.,12.0,0.,12.0,0.,12.0
1979-03-10 18:27:39.030 ,3,0,0.,12.0,0.,12.0,0.,12.0,0.,12.0
1979-03-10 18:27:51.030 ,3,0,0.,12.0,0.,12.0,0.,12.0,0.,12.0
1979-03-10 18:28:03.030 ,2,0,0.,12.0,0.,12.0,0.,12.0,0.,12.0
1979-03-10 18:28:15.030 ,2,0,0.,12.0,0.,12.0,0.,12.0,0.,12.0
1979-03-10 18:28:27.030 ,1,0,0.,12.0,0.,12.0,0.,12.0,0.,12.0
1979-03-10 18:28:39.030 ,1,0,0.,12.0,0.,12.0,0.,12.0,0.,12.0
1979-03-10 18:28:51.030 ,0,0,0.,12.0,0.,12.0,0.,12.0,0.,12.0
1979-03-10 18:29:03.030 ,0,0,0.,12.0,0.,12.0,0.,12.0,0.,12.0
1979-03-10 18:29:15.030 ,0,0,0.,12.0,0.,12.0,0.,12.0,0.,12.0
1979-03-10 18:29:27.030 ,0,0,0.,12.0,0.,12.0,0.,12.0,0.,12.0
1979-03-10 18:29:39.030 ,1,0,0.,12.0,0.,12.0,0.,12.0,0.,12.0
1979-03-10 18:29:51.030 ,1,0,0.,12.0,0.,12.0,0.,12.0,0.,12.0
1979-03-10 18:30:03.030 ,2,0,0.,12.0,0.,12.0,0.,12.0,0.,12.0
1979-03-10 18:30:15.030 ,2,0,0.,12.0,0.,12.0,0.,12.0,0.,12.0
1979-03-10 18:30:51.030 ,4,0,0.,12.0,0.,12.0,0.,12.0,0.,12.0
1979-03-10 18:31:03.030 ,4,0,0.,12.0,0.,12.0,0.,12.0,0.,12.0
1979-03-10 18:31:15.030 ,5,0,0.,12.0,0.,12.0,0.,12.0,0.,12.0
1979-03-10 18:31:27.030 ,5,0,0.,12.0,0.,12.0,0.,12.0,0.,12.0
1979-03-10 18:31:39.030 ,6,0,0.,12.0,0.,12.0,0.,12.0,0.,12.0
1979-03-10 18:31:51.030 ,6,0,0.,12.0,0.,12.0,0.,12.0,0.,12.0
1979-03-10 18:32:03.030 ,7,0,0.,12.0,0.,12.0,0.,12.0,0.,12.0
1979-03-10 18:32:15.030 ,7,0,0.,12.0,0.,12.0,0.,12.0,0.,12.0
1979-03-10 18:32:27.030 ,7,0,0.,12.0,0.,12.0,0.,12.0,0.,12.0
1979-03-10 18:32:39.030 ,7,0,0.,12.0,0.,12.0,0.,12.0,0.,12.0
1979-03-10 18:32:51.030 ,6,0,0.,12.0,0.,12.0,0.,12.0,0.,12.0
1979-03-10 18:33:03.030 ,6,0,0.,12.0,0.,12.0,0.,12.0,0.,12.0
1979-03-10 18:33:15.030 ,5,0,0.,12.0,0.,12.0,0.,12.0,0.,12.0
1979-03-10 18:33:27.030 ,5,0,0.,12.0,0.,12.0,0.,12.0,0.,12.0
1979-03-10 18:33:39.030 ,4,0,0.,12.0,0.,12.0,0.,12.0,0.,12.0
1979-03-10 18:33:51.030 ,4,0,0.,12.0,0.,12.0,0.,12.0,0.,12.0
1979-03-10 18:34:03.030 ,3,0,0.,12.0,0.,12.0,0.,12.0,0.,12.0
1979-03-10 18:34:15.030 ,3,0,0.,12.0,0.,12.0,0.,12.0,0.,12.0
1979-03-10 18:34:27.030 ,2,0,0.,12.0,0.,12.0,0.,12.0,0.,12.0
1979-03-10 18:34:39.030 ,2,0,0.,12.0,0.,12.0,0.,12.0,0.,12.0
1979-03-10 18:34:51.030 ,1,0,0.,12.0,0.,12.0,0.,12.0,0.,12.0
1979-03-10 18:35:03.030 ,1,0,0.,12.0,0.,12.0,0.,12.0,0.,12.0
1979-03-10 18:35:15.030 ,0,0,0.,12.0,0.,12.0,0.,12.0,0.,12.0
1979-03-10 18:35:27.030 ,0,0,0.,12.0,0.,12.0,0.,12.0,0.,12.0
1979-03-10 18:35:39.030 ,0,0,0.,12.0,0.,12.0,0.,12.0,0.,12.0
1979-03-10 18:35:51.030 ,0,0,0.,12.0,0.,12.0,0.,12.0,0.,12.0
1979-03-10 18:36:03.030 ,1,0,0.,12.0,0.,12.0,0.,12.0,0.,12.0
1979-03-10 18:36:15.030 ,1,0,0.,12.0,0.,12.0,0.,12.0,0.,12.0
1979-03-10 18:36:27.030 ,2,0,0.,12.0,0.,12.0,0.,12.0,0.,12.0
1979-03-10 18:36:39.030 ,2,0,0.,12.0,0.,12.0,0.,12.0,0.,12.0
1979-03-10 18:36:51.030 ,3,0,0.,12.0,0.,12.0,0.,12.0,0.,12.0
1979-03-10 18:37:03.030 ,3,0,0.,12.0,0.,12.0,0.,12.0,0.,12.0
1979-03-10 18:37:15.030 ,4,0,0.,12.0,0.,12.0,0.,12.0,0.,12.0
1979-03-10 18:37:27.030 ,4,0,0.,12.0,0.,12.0,0.,12.0,0.,12.0
1979-03-10 18:37:39.030 ,5,0,0.,12.0,0.,12.0,0.,12.0,0.,12.0
1979-03-10 18:37:51.030 ,5,0,0.,12.0,0.,12.0,0.,12.0,0.,12.0
1979-03-10 18:38:03.030 ,6,0,0.,12.0,0.,12.0,0.,12.0,0.,12.0
1979-03-10 18:38:15.030 ,6,0,0.,12.0,0.,12.0,0.,12.0,0.,12.0
1979-03-10 18:38:27.030 ,7,0,0.,12.0,0.,12.0,0.,12.0,0.,12.0
1979-03-10 18:38:39.030 ,7,0,0.,12.0,0.,12.0,0.,12.0,0.,12.0
1979-03-10 18:38:51.030 ,7,0,0.,12.0,0.,12.0,0.,12.0,0.,12.0
1979-03-10 18:39:03.030 ,7,0,0.,12.0,0.,12.0,0.,12.0,0.,12.0
1979-03-10 18:39:15.030 ,4,1,0.,12.0,0.,12.0,0.,12.0,0.,12.0
1979-03-10 18:39:27.030 ,4,1,0.,12.0,0.,12.0,0.,12.0,0.,12.0
1979-03-10 18:39:39.030 ,0,1,0.,12.0,0.,12.0,0.,12.0,0.,12.0
1979-03-10 18:39:51.030 ,0,1,0.,12.0,0.,12.0,0.,12.0,0.,12.0
1979-03-10 18:40:03.030 ,3,1,0.,12.0,0.,12.0,0.,12.0,0.,12.0
1979-03-10 18:40:15.030 ,3,1,0.,12.0,0.,12.0,0.,12.0,0.,12.0
1979-03-10 18:40:27.030 ,7,1,0.,12.0,0.,12.0,0.,12.0,0.,12.0
1979-03-10 18:40:39.030 ,7,1,0.,12.0,0.,12.0,0.,12.0,0.,12.0
1979-03-10 18:40:51.030 ,4,1,0.,12.0,0.,12.0,0.,12.0,0.,12.0
1979-03-10 18:41:03.030 ,4,1,0.,12.0,0.,12.0,0.,12.0,0.,12.0
1979-03-10 18:41:15.030 ,0,1,0.,12.0,0.,12.0,0.,12.0,0.,12.0
1979-03-10 18:41:27.030 ,0,1,0.,12.0,0.,12.0,0.,12.0,0.,12.0
1979-03-10 18:41:39.030 ,3,1,0.,12.0,0.,12.0,0.,12.0,0.,12.0
1979-03-10 18:41:51.030 ,3,1,0.,12.0,0.,12.0,0.,12.0,0.,12.0
1979-03-10 18:42:03.030 ,7,1,0.,12.0,0.,12.0,0.,12.0,0.,12.0
1979-03-10 18:42:15.030 ,7,1,0.,12.0,0.,12.0,0.,12.0,0.,12.0
1979-03-10 18:42:27.030 ,4,1,0.,12.0,0.,12.0,0.,12.0,0.,12.0
1979-03-10 18:42:39.030 ,4,1,0.,12.0,0.,12.0,0.,12.0,0.,12.0
1979-03-10 18:42:51.030 ,0,1,0.,12.0,0.,12.0,0.,12.0,0.,12.0
1979-03-10 18:43:03.030 ,0,1,0.,12.0,0.,12.0,0.,12.0,0.,12.0
1979-03-10 18:43:15.030 ,3,1,0.,12.0,0.,12.0,0.,12.0,0.,12.0
1979-03-10 18:43:27.030 ,3,1,0.,12.0,0.,12.0,0.,12.0,0.,12.0
1979-03-10 18:43:39.030 ,7,1,0.,12.0,0.,12.0,0.,12.0,0.,12.0
1979-03-10 18:43:51.030 ,7,1,0.,12.0,0.,12.0,0.,12.0,0.,12.0
1979-03-10 18:44:03.030 ,4,1,0.,12.0,0.,12.0,0.,12.0,0.,12.0
1979-03-10 18:44:15.030 ,4,1,0.,12.0,0.,12.0,0.,12.0,0.,12.0
1979-03-10 18:44:27.030 ,0,1,0.,12.0,0.,12.0,0.,12.0,0.,12.0
1979-03-10 18:44:39.030 ,0,1,0.,12.0,0.,12.0,0.,12.0,0.,12.0
1979-03-10 18:44:51.030 ,3,1,0.,12.0,0.,12.0,0.,12.0,0.,12.0
1979-03-10 18:45:03.030 ,3,1,0.,12.0,0.,12.0,0.,12.0,0.,12.0
1979-03-10 18:45:15.030 ,7,1,0.,12.0,0.,12.0,0.,12.0,0.,12.0
1979-03-10 18:45:27.030 ,7,1,0.,12.0,0.,12.0,0.,12.0,0.,12.0
1979-03-10 18:45:39.030 ,4,1,0.,12.0,0.,12.0,0.,12.0,0.,12.0
1979-03-10 18:45:51.030 ,4,1,0.,12.0,0.,12.0,0.,12.0,0.,12.0
1979-03-10 18:46:03.030 ,0,1,0.,12.0,0.,12.0,0.,12.0,0.,12.0
1979-03-10 18:46:15.030 ,0,1,0.,12.0,0.,12.0,0.,12.0,0.,12.0
1979-03-10 18:46:27.030 ,3,1,0.,12.0,0.,12.0,0.,12.0,0.,12.0
1979-03-10 18:46:39.030 ,3,1,0.,12.0,0.,12.0,0.,12.0,0.,12.0
1979-03-10 18:46:51.030 ,7,1,0.,12.0,0.,12.0,0.,12.0,0.,12.0
1979-03-10 18:47:03.030 ,7,1,0.,12.0,0.,12.0,0.,12.0,0.,12.0
1979-03-10 18:47:15.030 ,4,1,0.,12.0,0.,12.0,0.,12.0,0.,12.0
1979-03-10 18:47:27.030 ,4,1,0.,12.0,0.,12.0,0.,12.0,0.,12.0
1979-03-10 18:47:39.030 ,0,1,0.,12.0,0.,12.0,0.,12.0,0.,12.0
1979-03-10 18:47:51.030 ,0,1,0.,12.0,0.,12.0,0.,12.0,0.,12.0
1979-03-10 18:48:03.030 ,3,1,0.,12.0,0.,12.0,0.,12.0,0.,12.0
1979-03-10 18:48:15.030 ,3,1,0.,12.0,0.,12.0,0.,12.0,0.,12.0
1979-03-10 18:48:27.030 ,7,1,0.,12.0,0.,12.0,0.,12.0,0.,12.0
1979-03-10 18:48:39.030 ,7,1,0.,12.0,0.,12.0,0.,12.0,0.,12.0
1979-03-10 18:48:51.030 ,4,1,0.,12.0,0.,12.0,0.,12.0,0.,12.0
1979-03-10 18:49:03.030 ,4,1,0.,12.0,0.,12.0,0.,12.0,0.,12.0
1979-03-10 18:49:15.030 ,0,1,0.,12.0,0.,12.0,0.,12.0,0.,12.0
1979-03-10 18:49:27.030 ,0,1,0.,12.0,0.,12.0,0.,12.0,0.,12.0
1979-03-10 18:49:39.030 ,3,1,0.,12.0,0.,12.0,0.,12.0,0.,12.0
1979-03-10 18:49:51.030 ,3,1,0.,12.0,0.,12.0,0.,12.0,0.,12.0
1979-03-10 18:50:03.030 ,7,1,0.,12.0,0.,12.0,0.,12.0,0.,12.0
1979-03-10 18:50:15.030 ,7,1,0.,12.0,0.,12.0,0.,12.0,0.,12.0
1979-03-10 18:50:27.030 ,4,1,0.,12.0,0.,12.0,0.,12.0,0.,12.0
1979-03-10 18:50:39.030 ,4,1,0.,12.0,0.,12.0,0.,12.0,0.,12.0
1979-03-10 18:50:51.030 ,0,1,0.,12.0,0.,12.0,0.,12.0,0.,12.0
1979-03-10 18:51:03.030 ,0,1,0.,12.0,0.,12.0,0.,12.0,0.,12.0
1979-03-10 18:51:15.030 ,3,1,0.,12.0,0.,12.0,0.,12.0,0.,12.0
1979-03-10 18:51:27.030 ,3,1,0.,12.0,0.,12.0,0.,12.0,0.,12.0
1979-03-10 18:51:39.030 ,7,1,0.,12.0,0.,12.0,0.,12.0,0.,12.0
1979-03-10 18:51:51.030 ,7,1,0.,12.0,0.,12.0,0.,12.0,0.,12.0
1979-03-10 18:52:03.030 ,4,1,0.,12.0,0.,12.0,0.,12.0,0.,12.0
1979-03-10 18:52:15.030 ,4,1,0.,12.0,0.,12.0,0.,12.0,0.,12.0
1979-03-10 18:52:27.030 ,0,1,0.,12.0,0.,12.0,0.,12.0,0.,12.0
1979-03-10 18:52:39.030 ,0,1,0.,12.0,0.,12.0,0.,12.0,0.,12.0
1979-03-10 18:52:51.030 ,3,1,0.,12.0,0.,12.0,0.,12.0,0.,12.0
1979-03-10 18:53:03.030 ,3,1,0.,12.0,0.,12.0,0.,12.0,0.,12.0
1979-03-10 18:53:15.030 ,7,1,0.,12.0,0.,12.0,0.,12.0,0.,12.0
1979-03-10 18:53:27.030 ,7,1,0.,12.0,0.,12.0,0.,12.0,0.,12.0
1979-03-10 18:53:39.030 ,4,1,0.,12.0,0.,12.0,0.,12.0,0.,12.0
1979-03-10 18:53:51.030 ,4,1,0.,12.0,0.,12.0,0.,12.0,0.,12.0
1979-03-10 18:54:03.030 ,0,1,0.,12.0,0.,12.0,0.,12.0,0.,12.0
1979-03-10 18:54:15.030 ,0,1,0.,12.0,0.,12.0,0.,12.0,0.,12.0
1979-03-10 18:54:27.030 ,3,1,0.,12.0,0.,12.0,0.,12.0,0.,12.0
1979-03-10 18:54:39.030 ,3,1,0.,12.0,0.,12.0,0.,12.0,0.,12.0
1979-03-10 18:54:51.030 ,7,1,0.,12.0,0.,12.0,0.,12.0,0.,12.0
1979-03-10 18:55:03.030 ,7,1,0.,12.0,0.,12.0,0.,12.0,0.,12.0
1979-03-10 18:55:15.030 ,4,1,0.,12.0,0.,12.0,0.,12.0,0.,12.0
1979-03-10 18:55:27.030 ,4,1,0.,12.0,0.,12.0,0.,12.0,0.,12.0
1979-03-10 18:55:39.030 ,0,1,0.,12.0,0.,12.0,0.,12.0,0.,12.0
1979-03-10 18:55:51.030 ,0,1,0.,12.0,0.,12.0,0.,12.0,0.,12.0
1979-03-10 18:56:03.030 ,3,1,0.,12.0,0.,12.0,0.,12.0,0.,12.0
1979-03-10 18:56:15.030 ,3,1,0.,12.0,0.,12.0,0.,12.0,0.,12.0
1979-03-10 18:56:27.030 ,7,1,0.,12.0,0.,12.0,0.,12.0,0.,12.0
1979-03-10 18:56:39.030 ,7,1,0.,12.0,0.,12.0,0.,12.0,0.,12.0
1979-03-10 18:56:51.030 ,4,1,0.,12.0,0.,12.0,0.,12.0,0.,12.0
1979-03-10 18:57:03.030 ,4,1,0.,12.0,0.,12.0,0.,12.0,0.,12.0
1979-03-10 18:57:15.030 ,0,1,0.,12.0,0.,12.0,0.,12.0,0.,12.0
1979-03-10 18:57:27.030 ,0,1,0.,12.0,0.,12.0,0.,12.0,0.,12.0
1979-03-10 18:57:39.030 ,3,1,0.,12.0,0.,12.0,0.,12.0,0.,12.0
1979-03-10 18:57:51.030 ,3,1,0.,12.0,0.,12.0,0.,12.0,0.,12.0
1979-03-10 18:58:03.030 ,7,1,0.,12.0,0.,12.0,0.,12.0,0.,12.0
1979-03-10 18:58:15.030 ,7,1,0.,12.0,0.,12.0,0.,12.0,0.,12.0
1979-03-10 18:58:27.030 ,4,1,0.,12.0,0.,12.0,0.,12.0,0.,12.0
1979-03-10 18:58:39.030 ,4,1,0.,12.0,0.,12.0,0.,12.0,0.,12.0
1979-03-10 18:58:51.030 ,0,1,0.,12.0,0.,12.0,0.,12.0,0.,12.0
1979-03-10 18:59:03.030 ,0,1,0.,12.0,0.,12.0,0.,12.0,0.,12.0
1979-03-10 18:59:15.030 ,1,1,0.,12.0,0.,12.0,0.,12.0,0.,12.0
1979-03-10 18:59:27.030 ,1,1,,0,,0,,0,,0
1979-03-10 18:59:39.030 ,7,1,0.,12.0,0.,12.0,0.,12.0,0.,12.0
1979-03-10 18:59:51.030 ,7,1,0.,12.0,0.,12.0,0.,12.0,0.,12.0
1979-03-10 19:00:03.030 ,4,1,0.,12.0,0.,12.0,0.,12.0,0.,12.0
1979-03-10 19:00:15.030 ,4,1,0.,12.0,0.,12.0,0.,12.0,0.,12.0
1979-03-10 19:00:27.030 ,0,1,0.,12.0,0.,12.0,0.,12.0,0.,12.0
1979-03-10 19:00:39.030 ,0,1,0.,12.0,0.,12.0,0.,12.0,0.,12.0
1979-03-10 19:00:51.030 ,3,1,0.,12.0,0.,12.0,0.,12.0,0.,12.0
1979-03-10 19:01:03.030 ,3,1,0.,12.0,0.,12.0,0.,12.0,0.,12.0
1979-03-10 19:01:15.030 ,7,1,0.,12.0,0.,12.0,0.,12.0,0.,12.0
1979-03-10 19:01:27.030 ,7,1,0.,12.0,0.,12.0,0.,12.0,0.,12.0
1979-03-10 19:01:39.030 ,4,1,0.,12.0,0.,12.0,0.,12.0,0.,12.0
1979-03-10 19:01:51.030 ,4,1,0.,12.0,0.,12.0,0.,12.0,0.,12.0
1979-03-10 19:02:03.030 ,0,1,0.,12.0,0.,12.0,0.,12.0,0.,12.0
1979-03-10 19:02:15.030 ,0,1,0.,12.0,0.,12.0,0.,12.0,0.,12.0
1979-03-10 19:02:27.030 ,3,1,0.,12.0,0.,12.0,0.,12.0,0.,12.0
1979-03-10 19:02:39.030 ,3,1,0.,12.0,0.,12.0,0.,12.0,0.,12.0
1979-03-10 19:02:51.030 ,7,1,0.,12.0,0.,12.0,0.,12.0,0.,12.0
1979-03-10 19:03:03.030 ,7,1,0.,12.0,0.,12.0,0.,12.0,0.,12.0
1979-03-10 19:03:15.030 ,4,1,0.,12.0,0.,12.0,0.,12.0,0.,12.0
1979-03-10 19:03:27.030 ,4,1,0.,12.0,0.,12.0,0.,12.0,0.,12.0
1979-03-10 19:03:39.030 ,0,1,0.,12.0,0.,12.0,0.,12.0,0.,12.0
1979-03-10 19:03:51.030 ,0,1,0.,12.0,0.,12.0,0.,12.0,0.,12.0
1979-03-10 19:04:03.030 ,3,1,0.,12.0,0.,12.0,0.,12.0,0.,12.0
1979-03-10 19:04:15.030 ,3,1,0.,12.0,0.,12.0,0.,12.0,0.,12.0
1979-03-10 19:04:27.030 ,7,1,0.,12.0,0.,12.0,0.,12.0,0.,12.0
1979-03-10 19:04:39.030 ,7,1,0.,12.0,0.,12.0,0.,12.0,0.,12.0
1979-03-10 19:04:51.030 ,4,1,0.,12.0,0.,12.0,0.,12.0,0.,12.0
1979-03-10 19:05:03.030 ,4,1,0.,12.0,0.,12.0,0.,12.0,0.,12.0
1979-03-10 19:05:15.030 ,0,1,0.,12.0,0.,12.0,0.,12.0,0.,12.0
1979-03-10 19:05:27.030 ,0,1,0.,12.0,0.,12.0,0.,12.0,0.,12.0
1979-03-10 19:05:39.030 ,3,1,0.,12.0,0.,12.0,0.,12.0,0.,12.0
1979-03-10 19:05:51.030 ,3,1,0.,12.0,0.,12.0,0.,12.0,0.,12.0
1979-03-10 19:06:03.030 ,7,1,0.,12.0,0.,12.0,0.,12.0,0.,12.0
1979-03-10 19:06:15.030 ,7,1,0.,12.0,0.,12.0,0.,12.0,0.,12.0
1979-03-10 19:06:27.030 ,4,1,0.,12.0,0.,12.0,0.,12.0,0.,12.0
1979-03-10 19:06:39.030 ,4,1,0.,12.0,0.,12.0,0.,12.0,0.,12.0
1979-03-10 19:06:51.030 ,0,1,0.,12.0,0.,12.0,0.,12.0,0.,12.0
1979-03-10 19:07:03.030 ,0,1,0.,12.0,0.,12.0,0.,12.0,0.,12.0
1979-03-10 19:07:15.030 ,3,1,0.,12.0,0.,12.0,0.,12.0,0.,12.0
1979-03-10 19:07:27.030 ,3,1,0.,12.0,0.,12.0,0.,12.0,0.,12.0
1979-03-10 19:07:39.030 ,7,1,0.,12.0,0.,12.0,0.,12.0,0.,12.0
1979-03-10 19:07:51.030 ,7,1,0.,12.0,0.,12.0,0.,12.0,0.,12.0
1979-03-10 19:08:03.030 ,4,1,0.,12.0,0.,12.0,0.,12.0,0.,12.0
1979-03-10 19:08:15.030 ,4,1,0.,12.0,0.,12.0,0.,12.0,0.,12.0
1979-03-10 19:08:27.030 ,0,1,0.,12.0,0.,12.0,0.,12.0,0.,12.0
1979-03-10 19:08:39.030 ,0,1,0.,12.0,0.,12.0,0.,12.0,0.,12.0
1979-03-10 19:08:51.030 ,3,1,0.,12.0,0.,12.0,0.,12.0,0.,12.0
1979-03-10 19:09:03.030 ,3,1,0.,12.0,0.,12.0,0.,12.0,0.,12.0
1979-03-10 19:09:15.030 ,7,1,0.,12.0,0.,12.0,0.,12.0,0.,12.0
1979-03-10 19:09:27.030 ,7,1,0.,12.0,0.,12.0,0.,12.0,0.,12.0
1979-03-10 19:09:39.030 ,4,1,0.,12.0,0.,12.0,0.,12.0,0.,12.0
1979-03-10 19:09:51.030 ,4,1,0.,12.0,0.,12.0,0.,12.0,0.,12.0
1979-03-10 19:10:03.030 ,0,1,0.,12.0,0.,12.0,0.,12.0,0.,12.0
1979-03-10 19:10:15.030 ,0,1,0.,12.0,0.,12.0,0.,12.0,0.,12.0
1979-03-10 19:10:27.030 ,3,1,0.,12.0,0.,12.0,0.,12.0,0.,12.0
1979-03-10 19:10:39.030 ,3,1,0.,12.0,0.,12.0,0.,12.0,0.,12.0
1979-03-10 19:10:51.030 ,7,1,0.,12.0,0.,12.0,0.,12.0,0.,12.0
1979-03-10 19:11:03.030 ,7,1,0.,12.0,0.,12.0,0.,12.0,0.,12.0
1979-03-10 19:11:15.030 ,4,1,0.,12.0,0.,12.0,0.,12.0,0.,12.0
1979-03-10 19:11:27.030 ,4,1,0.,12.0,0.,12.0,0.,12.0,0.,12.0
1979-03-10 19:11:39.030 ,0,1,0.,12.0,0.,12.0,0.,12.0,0.,12.0
1979-03-10 19:11:51.030 ,0,1,0.,12.0,0.,12.0,0.,12.0,0.,12.0
1979-03-10 19:12:03.030 ,3,1,0.,12.0,0.,12.0,0.,12.0,0.,12.0
1979-03-10 19:12:15.030 ,3,1,0.,12.0,0.,12.0,0.,12.0,0.,12.0
1979-03-10 19:12:27.030 ,7,1,0.,12.0,0.,12.0,0.,12.0,0.,12.0
1979-03-10 19:12:39.030 ,7,1,0.,12.0,0.,12.0,0.,12.0,0.,12.0
1979-03-10 19:12:51.030 ,4,1,0.,12.0,0.,12.0,0.,12.0,0.,12.0
1979-03-10 19:13:03.030 ,4,1,0.,12.0,0.,12.0,0.,12.0,0.,12.0
1979-03-10 19:13:15.030 ,0,1,0.,12.0,0.,12.0,0.,12.0,0.,12.0
1979-03-10 19:13:27.030 ,0,1,0.,12.0,0.,12.0,0.,12.0,0.,12.0
1979-03-10 19:13:39.030 ,3,1,0.,12.0,0.,12.0,0.,12.0,0.,12.0
1979-03-10 19:13:51.030 ,3,1,0.,12.0,0.,12.0,0.,12.0,0.,12.0
1979-03-10 19:14:03.030 ,7,1,0.,12.0,0.,12.0,0.,12.0,0.,12.0
1979-03-10 19:14:15.030 ,7,1,0.,12.0,0.,12.0,0.,12.0,0.,12.0
1979-03-10 19:14:27.030 ,4,1,0.,12.0,0.,12.0,0.,12.0,0.,12.0
1979-03-10 19:14:39.030 ,4,1,0.,12.0,0.,12.0,0.,12.0,0.,12.0
1979-03-10 19:14:51.030 ,0,1,0.,12.0,0.,12.0,0.,12.0,0.,12.0
1979-03-10 19:15:03.030 ,0,1,0.,12.0,0.,12.0,0.,12.0,0.,12.0
1979-03-10 19:15:15.030 ,3,1,0.,12.0,0.,12.0,0.,12.0,0.,12.0
1979-03-10 19:15:27.030 ,3,1,0.,12.0,0.,12.0,0.,12.0,0.,12.0
1979-03-10 19:15:39.030 ,7,1,0.,12.0,0.,12.0,0.,12.0,0.,12.0
1979-03-10 19:15:51.030 ,7,1,0.,12.0,0.,12.0,0.,12.0,0.,12.0
1979-03-10 19:16:03.030 ,4,1,0.,12.0,0.,12.0,0.,12.0,0.,12.0
1979-03-10 19:16:15.030 ,4,1,0.,12.0,0.,12.0,0.,12.0,0.,12.0
1979-03-10 19:16:27.030 ,0,1,0.,12.0,0.,12.0,0.,12.0,0.,12.0
1979-03-10 19:16:39.030 ,0,1,0.,12.0,0.,12.0,0.,12.0,0.,12.0
1979-03-10 19:16:51.030 ,3,1,0.,12.0,0.,12.0,0.,12.0,0.,12.0
1979-03-10 19:17:03.030 ,3,1,0.,12.0,0.,12.0,0.,12.0,0.,12.0
1979-03-10 19:17:15.030 ,7,1,0.,12.0,0.,12.0,0.,12.0,0.,12.0
1979-03-10 19:17:27.030 ,7,1,0.,12.0,0.,12.0,0.,12.0,0.,12.0
1979-03-10 19:17:39.030 ,4,1,0.,12.0,0.,12.0,0.,12.0,0.,12.0
1979-03-10 19:17:51.030 ,4,1,0.,12.0,0.,12.0,0.,12.0,0.,12.0